EW7285 Weather Reports


time (UTC)temp
C
wind
direction
speed
KPH
gust
KPH
rain 1hr
cm
rain 24hr
cm
rain mn
cm
humidity
%
barometer
mb
20260508043056 0 171 0.0 0.0 0.00 0.00 0.00 87 1023.8
20260508041549 0 171 0.0 0.0 0.00 0.00 0.00 87 1023.7
20260508040046 -1 170 0.0 0.0 0.00 0.00 0.00 89 1023.5
20260508034545 -1 171 0.0 0.0 0.00 0.00 0.00 89 1023.3
20260508033042 -2 170 0.0 0.0 0.00 0.00 0.00 89 1023.2
20260508031539 -2 170 0.0 0.0 0.00 0.00 0.00 89 1023.0
20260508030044 -2 170 0.0 0.0 0.00 0.00 0.00 90 1022.8
20260508024539 -2 170 0.0 0.0 0.00 0.00 0.00 89 1022.8
20260508023034 -2 170 0.0 0.0 0.00 0.00 0.00 89 1022.7
20260508021536 -2 170 0.0 0.0 0.00 0.00 0.00 88 1022.6
20260508020029 -2 170 0.0 0.0 0.00 0.00 0.00 88 1022.4
20260508014526 -2 170 0.0 0.0 0.00 0.00 0.00 88 1022.3
20260508013035 -2 170 0.0 0.0 0.00 0.00 0.00 87 1022.2
20260508011521 -2 170 0.0 0.0 0.00 0.00 0.00 86 1022.1
20260508010019 -2 170 0.0 0.0 0.00 0.00 0.00 85 1021.9
20260508004531 -1 170 0.0 0.0 0.00 0.00 0.00 86 1021.6
20260508003013 -1 170 0.0 0.0 0.00 0.00 0.00 84 1021.5
20260508001516 -1 170 0.0 0.0 0.00 0.00 0.00 84 1021.3
20260508000007 -1 170 0.0 0.0 0.00 0.00 0.00 82 1021.2
20260507234505 0 170 0.0 0.0 0.00 0.00 0.00 82 1021.0
20260507233003 0 170 0.0 0.0 0.00 0.00 0.00 81 1020.9
20260507231559 0 170 0.0 0.0 0.00 0.00 0.00 79 1020.8
20260507230104 0 170 0.0 0.0 0.00 0.00 0.00 79 1020.6
20260507224553 0 170 0.0 0.0 0.00 0.00 0.00 77 1020.5
20260507223051 0 170 0.0 0.0 0.00 0.00 0.00 75 1020.3
20260507221549 1 170 0.0 0.0 0.00 0.00 0.00 73 1020.3
20260507220044 1 170 0.0 1.6 0.00 0.00 0.00 72 1020.2
20260507214604 1 170 0.0 0.0 0.00 0.00 0.00 69 1020.0
20260507213044 1 170 0.0 0.0 0.00 0.00 0.00 68 1019.9
20260507211540 2 170 0.0 0.0 0.00 0.00 0.00 64 1019.8
20260507210049 2 170 0.0 0.0 0.00 0.00 0.00 62 1019.6
20260507204535 2 170 0.0 0.0 0.00 0.00 0.00 61 1019.4
20260507203044 3 170 0.0 0.0 0.00 0.00 0.00 58 1019.3
20260507201535 3 170 0.0 1.6 0.00 0.00 0.00 56 1019.2
20260507200036 5 170 0.0 0.0 0.00 0.00 0.00 54 1019.0
20260507194550 6 170 3.2 6.4 0.00 0.00 0.00 49 1018.7
20260507193033 6 82 0.0 3.2 0.00 0.00 0.00 45 1018.6
20260507191526 7 82 3.2 4.8 0.00 0.00 0.00 42 1018.3
20260507190024 7 82 0.0 3.2 0.00 0.00 0.00 41 1018.0
20260507184521 8 126 0.0 6.4 0.00 0.00 0.00 38 1017.7
20260507183026 8 113 1.6 11.3 0.00 0.00 0.00 37 1017.7
20260507181519 9 151 3.2 14.5 0.00 0.00 0.00 38 1017.5
20260507180017 10 69 9.7 16.1 0.00 0.00 0.00 37 1017.3
20260507174517 10 96 4.8 14.5 0.00 0.00 0.00 33 1017.1
20260507173019 10 66 4.8 12.9 0.00 0.00 0.00 36 1016.8
20260507171510 10 103 1.6 12.9 0.00 0.00 0.00 37 1016.7
20260507170007 10 118 4.8 12.9 0.00 0.00 0.00 35 1016.4
20260507164505 11 72 6.4 16.1 0.00 0.00 0.00 35 1016.2
20260507163003 11 148 1.6 17.7 0.00 0.00 0.00 36 1016.0
20260507161600 11 111 4.8 17.7 0.00 0.00 0.00 36 1015.9
20260507160058 11 155 8.0 24.1 0.00 0.00 0.00 35 1015.8
20260507154605 11 198 16.1 25.7 0.00 0.00 0.00 35 1015.6
20260507153054 12 163 16.1 22.5 0.00 0.00 0.00 34 1015.4
20260507151553 12 140 4.8 22.5 0.00 0.00 0.00 33 1015.3
20260507150057 13 46 6.4 17.7 0.00 0.00 0.00 33 1015.1
20260507144551 13 72 6.4 17.7 0.00 0.00 0.00 30 1015.1
20260507143100 13 167 6.4 12.9 0.00 0.00 0.00 28 1015.0
20260507141551 13 92 4.8 12.9 0.00 0.00 0.00 27 1014.8
20260507140045 13 95 3.2 9.7 0.00 0.00 0.00 27 1014.8
20260507134545 13 96 4.8 12.9 0.00 0.00 0.00 26 1014.7
20260507133044 12 82 3.2 8.0 0.00 0.00 0.00 27 1014.7
20260507131601 13 85 6.4 12.9 0.00 0.00 0.00 27 1014.7
20260507130042 12 140 6.4 14.5 0.00 0.00 0.00 26 1014.7
20260507124543 13 184 6.4 16.1 0.00 0.00 0.00 25 1014.6
20260507123043 13 159 14.5 24.1 0.00 0.00 0.00 26 1014.6
20260507121539 13 115 9.7 20.9 0.00 0.00 0.00 26 1014.5
20260507120038 13 94 6.4 22.5 0.00 0.00 0.00 26 1014.6
20260507114539 12 100 8.0 17.7 0.00 0.00 0.00 26 1014.6
20260507113036 12 105 6.4 14.5 0.00 0.00 0.00 26 1014.6
20260507111533 12 124 4.8 20.9 0.00 0.00 0.00 28 1014.6
20260507110031 12 58 8.0 16.1 0.00 0.00 0.00 26 1014.5
20260507104530 12 165 4.8 11.3 0.00 0.00 0.00 28 1014.5
20260507103031 12 174 9.7 17.7 0.00 0.00 0.00 24 1014.4
20260507101527 11 178 12.9 16.1 0.00 0.00 0.00 27 1014.4
20260507100032 11 207 12.9 16.1 0.00 0.00 0.00 25 1014.5
20260507094526 11 226 9.7 14.5 0.00 0.00 0.00 27 1014.4
20260507093022 11 200 0.0 14.5 0.00 0.00 0.00 25 1014.2
20260507091525 10 204 1.6 14.5 0.00 0.00 0.00 26 1014.3
20260507090022 10 150 12.9 19.3 0.00 0.00 0.00 26 1014.3
20260507084518 10 168 6.4 14.5 0.00 0.00 0.00 26 1014.4
20260507083013 10 184 3.2 12.9 0.00 0.00 0.00 29 1014.4
20260507081509 9 180 9.7 19.3 0.00 0.00 0.00 31 1014.3
20260507080008 9 160 6.4 12.9 0.00 0.00 0.00 35 1014.3
20260507074507 8 71 4.8 16.1 0.00 0.00 0.00 36 1014.3
20260507073004 8 136 4.8 12.9 0.00 0.00 0.00 40 1014.3
20260507071501 8 118 3.2 14.5 0.00 0.00 0.00 42 1014.3
20260507070059 8 144 6.4 16.1 0.00 0.00 0.00 47 1014.2
20260507064555 7 131 6.4 14.5 0.00 0.00 0.00 52 1014.2
20260507063055 7 150 8.0 14.5 0.00 0.00 0.00 53 1014.2
20260507061555 6 70 6.4 12.9 0.00 0.00 0.00 57 1014.2
20260507060044 6 119 4.8 14.5 0.00 0.00 0.00 65 1014.1
20260507054540 6 153 3.2 11.3 0.00 0.00 0.00 69 1014.0
20260507053105 5 118 4.8 12.9 0.00 0.00 0.00 74 1014.0
20260507051541 4 119 6.4 11.3 0.00 0.00 0.00 79 1013.9
20260507050035 3 95 0.0 0.0 0.00 0.00 0.00 90 1013.8
20260507044529 1 95 0.0 3.2 0.00 0.00 0.00 90 1013.6